Theta_e
359 361 362 370 368 366 373 366 360 374 364 362 365 366 364 363 351 346 346 349 349 352 347 348 361 367 362 366 356 359 359 357 362 362 362 361 362 356 348 349 347 347 347 347 347 349 350 350 350 351 353 353 354 355 354 351 351 351 352 353 354 354 354 352 350 348 348 348 347 347 348 349 351 351
370 366 365 362 365 368 368 365 357 373 366 369 369 369 367 365 353 353 347 347 353 351 352 348 363 359 370 364 362 361 359 358 359 360 362 360 359 351 348 348 347 346 346 345 344 346 347 347 347 347 346 347 349 351 352 352 351 350 349 350 352 352 353 350 349 350 349 348 348 347 348 349 350 350
367 371 367 375 370 369 364 371 362 371 366 370 373 373 370 363 359 356 353 346 357 361 354 356 354 361 365 360 357 358 362 360 357 357 359 361 356 351 352 347 346 345 344 342 342 341 341 341 341 342 343 344 345 346 348 349 349 350 349 349 350 349 349 348 347 348 348 348 348 347 348 348 349 349
368 368 369 371 371 377 377 372 369 372 375 368 368 366 366 367 367 364 358 351 350 362 356 356 358 357 356 365 365 366 369 367 357 361 364 363 357 358 359 354 347 343 342 341 341 339 337 337 338 340 342 343 345 346 346 345 346 346 346 348 347 347 347 344 344 345 346 346 346 346 346 347 348 348
367 369 367 370 371 373 371 372 368 365 366 369 368 369 370 368 367 363 359 354 354 360 364 363 360 360 361 357 363 361 362 364 366 362 365 365 361 360 360 361 353 346 341 339 339 338 337 337 338 339 341 342 344 346 346 345 343 342 342 342 341 341 343 341 341 343 344 344 344 344 345 346 345 345
365 369 368 368 369 373 367 366 363 363 359 360 360 365 363 363 364 366 361 359 356 354 361 362 364 364 366 359 365 362 365 366 370 369 369 368 367 366 366 365 365 353 346 340 337 336 336 336 337 337 339 340 341 342 342 341 339 339 339 337 336 337 336 337 338 340 341 342 343 343 343 343 344 344
365 365 367 364 366 365 365 365 363 360 361 361 363 364 363 361 361 365 365 361 356 355 356 363 358 358 364 364 364 366 365 365 366 365 365 365 367 370 368 366 365 354 348 342 337 336 336 336 336 336 338 339 338 338 337 335 335 335 334 332 334 335 334 334 336 338 338 340 341 343 342 341 342 342
365 363 363 362 361 363 364 365 364 364 363 363 364 362 362 367 369 372 372 368 361 359 356 360 360 362 360 362 365 367 366 364 364 366 366 368 367 367 368 367 365 359 350 347 342 338 337 335 334 333 334 334 333 332 331 330 331 331 330 330 330 330 331 330 332 335 335 335 336 338 340 341 340 338
364 364 362 362 361 363 363 363 362 362 364 363 362 363 364 363 363 362 362 362 364 360 357 358 362 364 364 365 365 365 361 364 367 369 369 368 367 368 366 365 364 353 347 346 345 343 339 337 335 334 333 333 332 331 330 330 330 329 329 328 328 328 329 329 328 329 330 331 332 331 332 335 337 336
364 363 363 362 363 361 359 359 361 363 363 364 363 363 365 366 366 366 366 367 367 364 362 360 359 362 360 360 363 368 368 363 361 363 367 367 365 365 365 364 364 365 365 366 366 353 342 339 335 335 336 334 332 332 331 330 330 328 327 324 323 325 326 326 327 327 327 327 329 330 331 331 331 333
363 363 363 364 364 362 362 361 361 364 365 363 362 365 366 365 366 365 365 367 366 364 361 361 361 360 362 362 359 368 372 369 364 358 358 359 364 366 367 368 370 369 368 363 355 356 355 351 351 342 335 333 331 332 332 331 329 328 326 323 322 322 322 322 324 325 325 325 326 326 325 326 330 332
361 363 363 361 363 363 364 363 363 363 364 365 362 364 366 367 366 364 365 365 364 363 361 360 359 362 362 362 363 362 361 361 363 365 362 358 358 360 367 370 370 372 372 371 371 360 356 354 350 339 337 339 338 335 334 336 336 334 330 326 327 326 324 323 323 323 322 321 321 322 322 322 325 328
362 362 361 361 360 364 370 366 364 364 366 364 364 366 367 368 366 366 365 364 364 362 361 359 361 359 358 358 359 359 359 358 357 366 364 358 361 366 366 368 372 371 370 371 368 366 367 365 364 364 364 365 358 356 348 347 347 342 333 329 328 328 326 324 324 323 323 322 321 320 320 321 323 326
362 360 359 356 367 361 360 357 355 353 357 362 366 369 370 367 366 366 365 364 363 362 359 358 357 355 354 356 358 359 360 362 363 361 365 362 364 364 363 365 370 377 375 368 365 367 369 366 364 365 364 364 363 361 360 358 354 345 336 332 330 328 327 325 324 323 323 322 321 320 319 319 322 323
359 359 360 359 363 369 366 358 350 349 348 350 352 354 361 372 376 367 364 363 363 361 360 360 359 356 355 356 358 360 359 360 363 366 365 364 362 360 358 356 363 385 369 365 362 361 366 365 361 362 362 362 361 361 360 348 342 335 332 330 329 328 327 327 327 326 324 322 321 320 319 319 320 320
361 359 357 358 357 357 363 367 362 353 348 345 347 346 347 348 349 354 363 364 364 364 360 359 358 358 356 358 359 357 356 363 364 365 364 362 361 360 359 358 357 368 370 362 358 358 363 364 361 358 359 360 361 362 347 338 336 332 329 328 328 327 327 327 328 328 327 325 324 324 323 322 321 320
361 361 360 358 358 354 364 365 367 366 360 345 340 343 344 345 343 337 335 339 354 357 356 356 357 358 360 359 362 366 366 367 361 362 361 362 364 362 359 359 360 363 366 361 358 356 361 361 356 355 358 359 359 358 347 336 334 331 327 327 328 327 326 326 326 326 325 324 323 322 322 321 320 319
362 363 362 360 359 359 363 364 363 370 368 365 359 355 356 357 357 345 335 333 331 339 349 350 349 354 360 359 362 366 367 363 360 361 360 363 362 361 360 362 361 363 366 361 358 355 358 360 355 350 353 356 354 354 340 332 331 328 329 330 328 326 326 326 326 325 324 323 322 320 319 317 317 318
364 364 364 364 361 360 360 363 367 365 369 371 369 364 360 360 361 361 360 356 353 351 348 349 351 353 356 358 361 364 366 365 364 364 364 365 363 363 363 361 362 362 365 365 363 349 347 352 351 350 348 347 345 345 335 332 329 329 329 329 327 327 327 326 326 324 323 323 321 319 317 316 315 314
367 367 366 365 363 362 364 360 350 359 367 367 368 369 368 365 364 363 361 349 350 358 357 355 355 355 355 348 359 362 366 368 374 373 368 367 362 358 356 354 359 358 361 356 349 346 347 353 344 343 344 343 340 342 346 338 332 329 328 327 329 328 324 323 324 324 324 323 322 320 317 314 312 311
368 368 368 368 366 365 365 357 338 338 357 365 365 365 365 366 365 366 369 347 337 338 336 335 337 338 338 336 334 336 333 347 356 364 358 355 358 355 353 354 353 353 354 355 350 346 341 345 341 338 342 342 339 343 345 346 333 328 327 329 327 324 324 324 322 323 323 322 321 320 319 316 313 312
370 370 371 373 369 368 368 349 336 333 349 361 362 362 361 362 362 363 365 362 357 332 330 331 331 331 332 334 334 335 330 328 342 356 352 356 359 356 355 350 350 352 353 356 346 344 342 342 342 338 340 341 348 345 343 342 341 335 331 328 328 328 326 324 323 324 323 321 320 319 318 316 313 318
364 366 368 370 363 365 361 343 334 330 347 362 363 362 360 357 357 358 360 360 360 366 356 355 356 354 348 349 351 354 341 335 345 353 358 360 359 356 355 354 352 347 349 352 351 342 341 339 342 340 336 333 338 344 342 341 341 341 342 341 340 328 327 327 326 324 322 320 319 318 318 314 314 325
362 362 363 361 339 334 336 337 330 324 329 360 366 365 361 358 358 362 364 364 363 365 365 362 362 361 363 363 361 360 361 360 358 356 358 359 360 359 358 357 351 343 344 353 348 343 344 343 339 343 339 332 330 335 339 339 340 340 340 338 337 332 334 333 331 328 326 324 322 318 317 309 315 327
360 362 362 363 346 329 327 327 322 318 319 337 365 367 363 363 368 360 368 370 369 369 372 373 371 369 368 368 368 367 368 367 368 366 363 364 364 363 360 356 346 341 341 352 342 346 344 343 340 340 339 337 335 334 336 336 338 337 337 337 337 339 339 338 332 336 327 327 323 316 316 309 311 325
360 361 366 366 352 328 326 324 320 315 317 320 352 366 342 341 336 366 365 364 362 363 364 364 363 364 365 365 364 363 363 363 363 365 367 367 369 367 357 353 348 342 343 354 341 351 345 342 341 338 338 335 333 334 331 332 335 336 337 338 338 336 335 332 332 334 335 335 339 325 323 310 311 313
362 365 366 368 356 326 321 320 319 318 318 322 340 332 332 333 333 349 359 361 362 361 358 358 358 360 363 362 361 361 363 364 371 361 360 361 360 361 356 358 355 350 353 355 356 353 348 344 345 342 336 335 331 330 330 329 331 336 335 335 333 332 332 331 331 331 333 332 334 317 312 308 311 312
366 366 367 364 340 319 314 315 319 320 321 336 325 322 325 329 338 352 357 355 357 355 352 352 353 356 359 361 361 361 365 367 364 365 360 360 355 356 355 359 358 358 356 355 353 351 348 347 346 343 339 334 331 328 327 332 333 333 331 331 331 330 330 330 330 331 331 331 331 332 333 330 322 319
363 326 312 314 317 314 312 313 317 320 321 320 323 323 325 340 347 350 352 353 355 352 352 351 353 355 358 360 362 364 368 361 362 364 360 356 357 359 358 357 354 355 355 354 352 352 355 347 343 342 339 337 333 332 331 331 332 331 328 326 324 326 328 329 330 329 329 329 329 330 330 333 326 324
323 319 315 310 311 316 321 332 338 340 340 323 322 326 333 344 347 350 353 353 352 351 352 352 353 355 358 361 363 366 363 358 356 358 359 359 354 355 352 353 355 355 349 349 351 358 347 347 344 341 338 337 336 333 334 332 331 329 326 324 325 327 328 328 328 328 327 327 328 330 333 337 330 326
343 335 339 347 337 338 330 340 344 344 341 334 331 335 340 346 350 353 353 354 353 352 353 354 356 359 361 365 360 357 355 354 356 357 355 354 352 351 357 350 346 346 350 352 358 348 347 346 345 342 337 336 337 338 336 334 329 326 324 325 324 320 324 327 326 326 326 327 329 333 333 331 330 329
356 358 338 334 352 352 350 354 358 357 351 347 342 344 345 347 351 354 358 357 357 358 358 358 360 359 362 360 351 352 349 351 352 354 353 350 353 350 347 343 342 344 349 353 355 352 349 345 348 345 341 341 337 334 333 331 329 326 324 324 324 325 326 325 324 324 325 326 327 331 329 329 327 328
354 355 357 355 356 355 352 352 355 356 357 355 353 353 353 353 354 354 353 354 356 358 360 359 359 359 356 353 352 348 348 352 353 354 353 349 348 349 347 342 340 341 341 346 347 353 345 348 349 344 344 337 335 334 330 327 328 327 323 322 323 323 325 325 324 323 324 324 323 327 326 326 326 325
353 354 353 354 353 353 353 353 352 353 354 355 355 355 345 353 354 353 353 355 356 360 358 358 357 356 353 350 350 348 347 353 352 350 342 347 348 346 343 340 340 343 345 344 342 350 346 349 345 347 338 334 331 328 327 327 326 326 324 323 322 323 325 324 324 324 322 322 322 322 323 322 323 323
351 353 352 352 353 352 353 352 352 354 354 353 353 355 354 354 353 352 355 355 354 354 356 354 353 354 350 347 347 346 345 346 350 344 345 346 346 344 341 339 338 344 341 339 340 349 343 343 336 333 340 330 328 327 324 324 325 325 324 322 323 324 324 324 323 322 321 321 320 319 318 318 318 320
349 352 353 352 352 353 353 353 353 355 355 355 355 355 353 353 353 354 354 355 356 354 352 349 347 347 346 350 347 349 345 340 343 345 344 342 341 340 340 340 340 340 342 338 340 344 343 337 334 329 326 327 326 325 326 323 321 325 322 320 322 323 324 324 324 322 319 318 318 316 314 313 314 316
350 351 353 354 355 355 353 355 356 356 356 356 359 356 354 352 352 353 351 349 350 345 343 345 343 342 346 346 344 338 338 339 339 337 336 339 342 343 344 341 337 340 339 341 345 339 342 336 332 330 326 324 322 320 324 324 317 316 323 321 320 323 323 324 322 321 319 317 316 315 314 313 313 314
353 352 352 353 356 357 356 355 355 355 355 357 355 355 355 352 352 347 347 345 340 341 340 342 339 342 342 340 340 340 339 338 336 335 336 339 340 340 337 337 340 339 338 336 337 339 339 335 331 331 329 324 321 321 321 330 326 320 312 318 320 321 323 322 320 319 318 318 315 315 315 313 312 313
356 355 354 354 355 359 359 357 354 352 351 351 352 351 349 347 345 343 342 340 341 340 342 340 341 341 339 341 339 338 339 337 336 336 337 338 337 337 337 335 337 342 336 334 334 338 339 332 331 331 328 326 324 324 326 325 327 320 316 306 316 321 320 321 321 321 320 318 316 315 315 317 317 316
354 351 351 351 350 351 350 350 348 346 344 344 343 343 343 341 341 341 340 338 337 338 340 340 341 337 340 338 337 338 337 338 336 337 337 336 333 334 337 339 338 339 337 333 331 332 339 331 331 331 331 330 332 335 335 335 329 319 319 317 305 316 320 322 320 320 320 321 322 317 315 316 314 316
345 345 344 346 346 346 346 345 342 341 340 340 340 335 340 339 338 338 338 337 337 337 339 341 337 338 338 339 339 337 337 336 335 336 335 335 333 334 333 330 339 335 332 329 332 332 337 332 337 331 337 337 336 337 334 329 326 324 321 319 308 307 312 316 322 319 319 320 320 317 315 314 313 313
341 339 339 338 337 337 340 341 341 339 339 338 338 337 336 333 332 331 334 335 337 338 339 339 339 338 339 337 337 335 334 331 333 333 333 332 333 334 332 331 332 334 333 330 332 336 342 338 341 334 336 337 334 330 326 326 324 327 323 321 318 309 307 309 310 314 320 317 317 317 317 316 316 313
335 334 332 333 334 334 335 336 337 336 335 336 336 336 335 334 334 335 336 336 337 337 339 342 340 337 337 336 335 335 335 334 333 334 334 334 334 335 333 335 336 338 336 336 338 337 339 342 337 336 337 335 334 330 325 326 324 330 328 321 319 320 320 311 308 308 309 309 312 316 316 315 314 312
334 333 333 333 333 333 333 333 334 334 334 334 335 336 334 334 334 335 336 335 337 338 341 342 344 342 338 336 337 338 337 335 336 337 335 333 334 334 333 333 332 334 334 333 333 334 335 335 337 337 334 332 334 331 326 327 324 323 323 329 325 322 319 319 318 311 311 311 310 310 311 312 315 316
333 333 333 333 333 333 333 333 333 334 334 335 335 336 335 335 333 335 336 337 338 338 338 337 338 337 338 337 337 336 338 331 334 335 335 334 334 332 332 333 332 332 332 334 333 332 334 335 337 339 336 332 331 329 328 325 323 323 323 325 325 325 323 320 319 317 318 317 313 310 310 312 312 311
Wind_Speed
4 4 3 3 2 3 2 2 3 3 4 3 4 2 1 1 1 0 1 2 3 3 6 2 0 3 4 4 5 4 5 6 7 6 6 6 6 10 15 17 17 17 18 18 19 19 19 19 19 19 20 20 20 19 19 19 19 20 20 21 21 21 20 19 19 19 19 20 20 20 20 19 20 21
3 3 2 6 4 3 2 2 4 3 3 3 2 2 1 3 3 1 0 2 2 4 5 4 1 2 2 3 5 4 5 8 9 7 7 8 7 11 13 15 16 17 18 18 18 18 18 18 18 18 19 20 20 20 20 19 20 21 21 21 21 21 21 20 20 20 21 21 21 21 21 20 20 20
3 2 3 1 3 4 3 2 2 3 5 3 2 1 1 3 3 2 1 2 2 2 3 3 4 2 4 5 4 4 4 7 9 6 6 6 8 11 8 11 14 15 16 16 17 17 18 18 18 18 18 19 20 20 20 20 21 22 22 21 21 22 22 22 21 21 22 22 22 22 22 22 20 20
4 3 3 2 2 1 1 1 2 2 2 4 4 4 4 2 1 2 2 3 6 3 4 5 5 7 5 3 4 3 3 3 2 4 5 6 8 6 5 10 13 14 15 17 17 18 18 19 19 19 19 20 20 21 20 20 21 22 22 23 22 22 22 22 22 22 22 22 23 23 22 21 20 20
3 3 4 3 3 3 2 2 2 3 3 3 4 3 2 3 3 4 4 5 5 4 4 5 4 6 6 6 4 5 5 4 4 5 5 6 6 6 6 6 10 12 14 16 17 17 18 18 18 19 20 20 21 21 21 21 21 22 23 22 22 22 22 22 21 21 22 22 23 22 22 21 21 21
4 3 4 3 3 3 4 3 4 4 3 4 5 6 5 5 5 5 4 5 5 6 3 4 5 5 4 6 4 5 4 3 3 4 4 4 4 4 4 5 6 13 15 16 16 17 17 17 18 19 20 21 21 22 21 21 21 21 22 21 21 22 22 22 21 21 21 22 23 22 22 21 21 21
5 4 3 4 4 4 4 5 5 4 4 3 3 3 5 7 6 6 6 5 6 6 5 4 5 4 4 3 4 4 5 5 5 6 6 6 4 3 5 6 6 9 10 12 14 16 17 17 17 17 18 20 21 21 21 21 20 20 21 21 21 21 21 21 21 22 22 22 23 23 22 22 22 22
6 6 5 6 6 5 5 5 5 5 5 4 4 4 4 2 2 2 2 4 5 4 5 4 5 4 5 4 4 4 5 6 6 5 5 5 6 6 5 6 7 8 14 15 15 15 15 14 14 16 17 19 20 20 21 20 20 20 20 20 20 20 20 20 20 21 22 22 23 24 23 23 23 23
7 6 7 7 7 5 5 5 5 5 5 5 5 4 3 4 4 4 3 4 3 4 6 6 4 5 4 4 4 5 7 6 5 4 5 5 4 4 6 7 7 12 15 16 18 16 13 13 14 16 18 19 19 20 20 20 20 20 19 19 19 19 19 20 20 20 20 21 22 23 22 22 23 23
7 7 7 7 7 7 7 6 5 5 6 5 6 5 4 4 3 4 5 4 4 5 6 5 6 5 6 5 5 4 5 6 6 5 4 4 5 6 6 7 7 6 6 6 5 6 8 10 15 17 17 18 18 19 19 20 20 19 19 19 18 18 19 19 20 19 19 20 21 22 22 21 22 22
9 9 9 8 8 7 7 7 6 5 6 6 5 5 6 5 4 4 4 4 4 5 6 6 6 7 6 7 7 4 4 4 5 7 6 6 6 6 6 6 5 5 6 7 9 9 10 13 13 13 14 15 16 18 18 18 19 19 19 19 18 18 18 19 20 20 20 20 20 20 20 21 21 21
10 10 10 10 9 9 7 7 6 6 6 5 6 5 4 4 5 5 4 5 5 5 5 6 6 5 5 4 4 5 6 6 6 6 6 7 4 5 4 4 4 4 5 4 5 8 9 8 10 12 12 13 15 15 15 16 18 18 18 18 19 19 19 20 21 21 21 20 19 19 19 19 20 20
10 10 11 11 11 9 12 12 10 9 7 5 5 5 4 5 5 5 5 5 5 5 5 6 5 6 7 6 6 6 6 7 7 4 4 5 5 3 3 3 4 6 5 3 4 7 7 9 8 8 8 7 8 10 12 12 15 15 14 14 16 17 18 20 20 21 20 20 19 18 18 18 18 19
10 11 11 11 15 16 16 16 16 15 13 10 6 4 4 6 5 5 5 5 5 5 6 6 5 7 7 6 5 4 4 3 4 5 3 4 5 6 6 5 3 3 2 3 5 6 7 8 9 8 8 8 8 7 7 8 11 12 14 13 11 12 15 16 18 19 19 19 18 18 17 17 17 18
10 9 10 9 9 8 12 15 18 17 16 15 14 12 9 5 3 5 6 7 6 6 6 6 6 7 8 8 6 5 4 3 3 2 3 5 6 6 7 8 4 0 3 4 6 7 7 7 8 8 8 8 8 7 8 12 13 14 15 14 13 10 11 13 15 16 17 17 16 15 15 16 16 16
9 9 9 8 8 6 5 7 11 13 16 16 16 15 14 13 10 7 6 6 5 5 6 6 7 6 7 6 5 7 6 3 3 3 3 4 6 6 6 6 7 3 5 8 9 8 6 6 7 7 8 8 7 7 9 12 12 14 15 15 14 12 9 8 9 11 13 13 12 13 15 15 15 16
8 8 8 7 6 7 12 9 8 9 10 13 16 16 15 14 14 14 13 11 9 6 7 8 8 7 5 5 5 3 3 3 5 4 5 4 4 5 7 6 6 7 8 9 9 8 5 5 7 7 7 6 4 6 7 13 17 16 11 11 12 11 10 9 9 9 9 10 11 12 13 14 14 15
9 8 8 8 7 6 5 6 8 8 9 9 9 9 7 8 12 13 15 16 15 11 10 10 11 10 5 7 6 5 4 5 7 6 6 4 5 5 6 6 8 8 7 8 8 8 6 4 5 6 6 4 5 5 10 17 14 10 13 16 13 10 12 13 12 10 10 10 10 10 11 12 12 14
9 9 9 8 8 7 7 5 7 7 8 7 8 9 10 10 10 9 10 10 9 10 9 10 13 12 10 10 10 7 6 6 7 7 7 5 4 4 5 6 7 8 9 8 3 5 6 4 3 3 6 6 6 6 10 12 10 13 16 15 13 15 16 14 13 12 11 11 11 10 9 10 11 12
8 9 9 8 9 8 7 10 12 10 7 7 8 8 8 9 9 10 12 14 14 12 11 12 13 12 14 14 10 8 6 5 5 3 2 3 4 6 8 7 6 6 2 4 6 6 4 3 5 3 4 6 8 7 5 6 11 14 14 13 16 20 18 14 14 15 15 13 12 11 8 8 9 10
6 8 8 8 8 9 8 10 13 14 11 7 9 9 9 9 9 9 9 15 20 19 19 17 17 18 18 15 14 11 5 4 2 2 3 6 5 6 7 7 5 4 4 3 4 4 6 4 6 7 3 4 8 5 4 5 11 13 12 16 16 15 15 16 16 17 17 14 13 12 6 5 6 8
5 6 11 10 8 9 9 12 13 14 11 9 10 9 9 9 9 8 8 7 8 18 19 19 16 13 12 12 9 7 8 7 4 3 7 7 4 6 6 7 5 5 5 1 4 3 4 6 5 8 7 3 2 4 4 7 6 9 12 12 16 18 18 17 18 18 18 15 13 12 4 3 3 3
8 7 9 12 12 10 10 12 13 14 12 10 10 9 8 9 10 9 7 7 7 2 4 7 7 7 10 9 7 9 12 13 9 8 8 6 5 7 6 5 5 5 2 2 3 3 3 6 4 6 8 9 4 1 4 6 8 9 7 8 11 15 16 17 18 19 17 14 13 9 2 4 6 3
9 10 9 10 14 16 14 14 13 14 16 11 9 8 9 9 10 8 7 8 7 4 5 7 7 8 7 7 7 9 9 11 11 10 10 8 7 7 6 5 5 4 2 2 4 4 2 2 5 3 2 5 8 9 7 7 7 7 8 10 9 12 14 15 13 16 17 16 11 3 3 7 7 3
9 9 10 10 13 17 18 16 15 14 15 14 9 9 9 9 2 3 2 3 5 3 3 2 3 5 6 7 6 6 7 8 8 9 10 8 7 7 6 5 4 3 3 1 7 4 3 4 5 4 3 3 5 8 8 8 6 7 9 10 9 9 8 9 10 11 13 17 11 4 1 6 9 5
10 9 8 9 11 17 19 19 16 15 14 16 10 10 10 6 5 2 1 2 3 4 4 4 4 4 5 5 6 6 5 4 3 5 3 5 3 1 0 1 2 3 3 2 7 2 2 3 3 5 4 5 7 6 9 8 7 8 8 8 8 9 9 10 9 9 10 10 10 7 5 3 6 8
10 8 8 8 13 17 18 19 19 17 17 11 10 14 12 9 6 3 4 3 3 3 4 5 6 5 5 4 4 4 4 4 1 3 3 1 2 1 1 1 2 3 3 3 1 1 1 3 2 3 4 4 6 7 6 8 9 9 9 9 9 8 8 9 9 9 8 9 10 6 3 2 2 4
8 9 9 9 12 16 18 19 19 19 16 12 15 15 14 13 7 4 5 6 7 7 7 8 8 7 5 5 5 4 2 2 2 0 1 0 1 2 2 0 1 2 3 2 2 2 4 3 1 3 3 4 6 6 8 6 6 8 9 9 8 7 8 7 8 8 9 9 9 9 8 4 1 0
2 5 7 7 5 10 12 14 13 13 15 17 16 15 15 10 4 5 5 6 7 8 8 8 8 8 7 7 5 3 3 3 2 2 1 0 0 1 1 2 4 4 3 2 3 4 1 3 3 3 3 3 4 5 5 6 7 8 9 10 9 9 7 7 8 8 9 9 9 10 8 8 2 1
11 8 9 10 9 8 6 5 4 5 8 13 14 11 7 4 5 6 6 6 7 8 7 8 8 7 6 6 5 5 3 3 3 2 2 1 1 1 2 1 1 2 4 4 4 2 4 4 4 3 3 3 4 5 3 5 6 7 8 8 8 7 4 8 8 8 9 11 11 11 9 6 5 3
5 5 5 4 6 5 10 7 7 6 5 4 2 4 5 6 6 7 7 7 8 8 8 7 7 6 5 4 2 5 5 4 3 2 2 2 2 2 1 0 2 4 6 5 2 5 5 5 2 1 2 3 4 2 3 4 5 6 8 7 7 7 8 7 7 8 10 11 10 8 8 7 5 4
9 6 4 6 4 4 4 3 3 4 4 6 6 5 6 6 7 8 11 10 8 7 8 7 6 5 5 5 5 5 5 4 4 4 3 3 1 1 2 1 3 4 3 1 2 4 6 4 1 0 2 1 1 2 3 3 3 4 7 7 7 6 5 7 8 9 11 10 9 7 7 7 7 7
8 7 6 6 6 5 6 6 7 7 7 7 7 8 7 7 7 7 7 8 8 7 6 6 5 3 3 4 4 4 4 4 4 5 4 4 2 0 1 4 4 4 2 0 1 1 3 3 2 1 3 5 3 2 1 4 2 2 5 7 7 7 6 7 7 9 11 10 10 9 6 7 8 9
8 8 9 9 9 9 8 8 8 8 8 8 8 9 9 8 7 8 8 7 7 6 6 5 4 4 3 3 3 2 3 1 2 4 5 3 2 1 2 4 5 5 1 0 2 1 3 3 2 4 6 5 4 4 2 2 4 4 4 4 5 6 6 6 6 7 8 8 9 9 8 7 8 8
9 8 9 9 9 9 8 8 9 8 8 8 9 8 8 8 8 7 6 6 5 5 5 5 4 2 2 2 2 2 3 2 0 4 3 4 4 4 4 5 5 1 0 2 2 2 3 3 3 2 4 3 0 0 1 1 3 3 4 4 4 5 5 5 5 6 8 8 9 8 7 7 8 9
9 9 9 8 9 9 9 9 8 8 8 8 8 6 8 8 7 6 5 4 4 3 2 3 2 0 1 1 3 3 4 4 3 1 2 4 5 5 6 4 2 2 2 4 4 2 4 4 3 3 2 2 2 2 3 2 3 2 3 5 5 5 5 4 3 4 6 6 7 7 8 9 9 10
7 8 9 8 8 8 9 9 8 8 8 6 4 6 7 6 5 4 5 5 4 5 3 2 3 3 2 3 4 4 6 6 3 3 5 5 5 4 2 2 5 5 4 4 2 2 4 5 4 3 2 2 3 5 2 3 4 4 2 3 4 3 4 5 5 5 4 4 4 6 6 6 7 7
7 7 8 8 7 7 7 8 8 7 6 5 5 4 4 4 5 6 5 6 5 4 4 3 4 3 6 5 3 2 2 3 5 6 6 5 4 3 4 5 3 1 1 4 4 4 5 5 5 4 2 0 4 4 4 1 2 3 5 1 3 3 5 6 5 5 3 2 4 3 3 3 3 3
7 6 6 6 6 5 4 4 4 4 3 4 5 5 6 6 6 5 5 5 5 3 3 3 2 4 7 5 3 3 3 2 5 5 5 5 5 6 6 5 3 1 0 4 4 4 5 5 5 5 5 3 3 4 2 4 3 2 3 5 3 1 5 4 5 5 5 3 1 1 1 2 3 2
2 3 3 3 3 2 3 3 4 5 5 5 6 5 6 7 6 5 5 6 6 6 4 4 4 4 4 5 1 2 5 7 5 4 5 5 5 5 4 2 3 1 1 3 5 5 3 5 6 5 5 5 5 4 1 1 4 3 2 2 9 4 5 0 1 5 4 5 2 1 1 1 1 2
4 4 3 3 3 3 4 5 5 5 6 7 7 7 7 6 7 6 6 6 5 4 2 3 5 4 3 3 2 2 2 2 4 5 6 6 6 5 3 1 0 1 4 5 4 6 3 7 6 9 6 4 3 1 2 4 5 4 3 1 7 6 10 7 3 1 1 2 3 0 1 2 1 1
5 5 4 5 5 4 3 4 6 6 6 6 7 7 7 8 8 9 9 6 4 3 1 2 4 3 4 5 3 2 2 3 4 5 5 4 5 5 6 5 5 3 4 4 4 3 3 5 6 6 3 3 2 2 5 6 3 3 6 4 3 3 3 7 4 3 1 1 1 2 2 2 2 0
6 6 5 5 6 5 5 5 5 6 7 6 7 6 7 7 7 6 5 4 3 1 0 2 2 4 2 1 3 3 3 3 5 5 5 4 3 3 3 3 3 2 2 2 2 3 1 3 4 4 5 5 4 5 5 0 1 1 4 5 4 3 3 3 6 6 4 1 2 4 3 2 1 2
6 6 6 6 6 7 7 7 6 6 6 5 5 6 6 5 5 3 4 6 3 2 1 1 1 1 3 4 4 3 3 4 3 3 4 4 4 4 3 3 4 3 3 3 4 4 4 5 3 6 5 4 3 2 4 2 2 2 3 2 4 5 5 4 4 3 3 5 2 5 8 6 3 5
5 5 5 6 6 6 6 5 5 4 4 4 4 3 4 4 4 4 5 5 4 3 3 3 3 4 4 4 3 2 2 1 1 3 4 5 4 4 3 4 4 4 5 4 4 5 5 4 4 2 3 4 4 4 5 4 5 3 4 4 5 6 6 6 6 6 5 4 2 6 1 6 7 7
Wind_Direction
234 188 196 186 228 280 346 343 317 88 76 55 51 40 113 115 108 299 306 299 302 333 331 334 246 134 175 184 221 222 211 220 209 199 215 219 232 215 219 227 231 232 233 235 237 238 241 243 244 247 248 249 248 245 244 242 242 242 242 242 242 242 242 240 237 235 234 234 233 231 231 230 231 233
257 289 203 174 205 211 238 232 251 139 143 151 174 177 172 143 166 186 294 292 301 302 315 315 27 287 228 208 229 232 236 235 213 209 210 224 229 235 222 226 231 234 236 237 240 242 244 246 247 248 250 252 252 252 250 248 246 246 245 245 243 242 241 241 239 236 234 234 233 232 231 229 228 230
252 239 278 180 198 194 222 251 247 152 148 148 173 240 130 154 180 209 236 285 284 291 296 323 323 294 233 247 248 241 210 226 223 224 229 234 241 250 251 234 235 240 244 244 245 246 246 246 247 248 249 250 251 250 250 249 249 249 249 248 247 246 245 243 240 238 237 235 234 233 232 230 229 230
211 221 228 241 281 307 40 307 297 321 167 166 169 192 199 206 216 199 235 239 273 305 300 299 304 290 287 278 294 299 316 311 224 226 238 242 247 250 253 255 241 240 242 244 243 243 244 245 246 248 249 250 251 251 251 250 250 251 252 251 251 250 248 246 244 242 240 239 238 235 234 233 232 231
219 197 205 216 215 230 240 213 243 249 233 183 173 181 205 207 199 199 209 241 262 263 249 268 279 292 293 283 273 282 275 266 252 227 233 246 253 257 259 263 258 245 243 247 246 245 245 246 247 248 250 251 253 253 252 251 250 251 251 251 252 252 251 250 248 246 245 244 243 241 239 234 232 230
249 215 191 216 230 211 223 238 231 236 247 212 194 183 195 203 219 202 216 226 243 262 269 268 267 274 280 287 277 278 294 295 306 290 281 269 259 252 251 250 250 245 239 242 246 248 249 249 249 249 250 252 254 255 255 254 253 254 254 254 252 252 252 250 249 249 248 247 248 245 242 239 235 233
214 235 227 212 211 221 221 218 235 249 249 267 267 222 189 199 207 206 202 214 238 255 257 252 274 269 267 264 302 310 301 292 284 282 280 279 277 265 256 262 273 279 273 244 241 244 245 246 248 249 251 253 256 257 257 257 256 256 256 255 254 253 252 251 249 248 248 248 247 246 242 239 238 236
205 212 222 228 219 216 222 218 214 220 240 252 251 271 284 285 258 227 209 208 227 243 265 252 254 264 278 280 279 285 279 278 276 268 271 266 270 274 272 272 275 256 247 249 241 240 244 249 252 253 254 256 257 257 258 258 257 256 255 256 256 255 255 254 252 248 247 246 247 248 245 241 238 236
209 211 215 216 223 228 223 219 217 220 233 229 233 235 227 227 229 235 237 255 256 260 265 273 259 261 261 266 270 259 268 265 255 250 247 257 263 263 264 269 272 276 266 251 253 257 257 253 252 252 253 254 255 256 258 259 259 258 257 257 257 256 256 256 254 251 249 248 248 247 247 244 242 240
214 216 215 221 219 218 220 227 223 221 224 227 230 229 229 224 216 216 224 226 234 249 260 265 279 271 273 271 245 241 247 266 272 261 254 260 261 256 258 255 257 263 281 299 287 256 238 240 245 250 253 256 257 260 262 263 263 262 262 261 259 259 259 259 258 255 250 248 247 247 246 245 243 242
214 217 219 219 218 220 218 221 225 220 218 225 236 223 219 220 230 239 241 227 231 239 251 256 255 268 260 252 267 244 239 255 261 271 271 267 253 246 243 255 247 266 282 285 287 281 276 275 276 275 272 264 263 265 265 267 268 268 266 263 261 259 258 258 258 257 253 250 247 244 243 243 243 241
218 212 218 222 217 217 218 219 221 223 220 209 221 226 225 218 218 229 230 230 233 235 242 248 261 261 276 279 281 281 273 264 263 250 253 264 270 269 264 262 282 281 271 269 272 284 287 287 281 272 265 271 274 271 270 270 268 266 260 258 258 256 253 253 255 255 253 251 249 246 243 240 240 240
220 222 219 216 220 207 208 212 217 224 226 224 219 215 215 223 220 223 223 232 234 240 248 265 268 272 270 264 264 266 259 253 253 253 258 272 276 284 295 291 288 279 273 269 305 310 311 306 299 300 307 303 297 294 289 287 284 278 268 255 252 253 253 253 254 255 254 252 249 245 242 239 238 237
216 223 230 230 216 209 201 204 208 214 223 226 231 227 209 215 222 224 234 234 231 234 241 246 250 260 264 262 253 255 252 266 277 280 295 314 318 316 301 289 277 287 335 331 305 292 296 299 298 299 300 301 295 289 290 288 283 289 299 301 285 271 267 265 266 266 265 261 255 249 244 241 238 236
221 220 220 235 247 225 206 203 204 208 213 219 224 232 238 236 213 227 229 232 231 233 236 234 235 245 258 262 261 257 273 266 278 311 336 318 314 305 314 309 305 86 31 304 296 292 290 292 290 293 290 291 289 287 281 282 299 317 325 333 337 316 289 280 279 279 278 276 272 266 258 251 244 239
217 226 227 219 224 233 211 191 207 212 213 215 221 226 232 235 237 228 220 239 251 244 249 243 238 246 253 274 289 287 286 297 326 316 317 299 294 301 304 302 296 309 347 309 299 289 283 274 279 289 284 279 277 279 292 310 336 337 347 351 342 345 339 313 295 289 287 284 275 264 256 251 247 241
213 218 229 241 230 220 215 213 198 202 214 221 222 225 229 236 236 238 238 232 234 252 258 261 261 248 264 270 266 281 296 316 293 292 285 277 287 301 294 288 303 307 300 297 290 284 283 282 279 273 275 278 292 315 330 350 338 344 355 339 340 341 346 344 333 319 305 290 276 266 261 254 245 239
216 214 216 223 233 240 222 207 205 194 206 207 214 218 225 232 240 242 244 246 244 236 240 247 252 250 238 248 252 264 276 279 274 279 275 282 285 280 282 301 293 288 281 275 287 290 277 254 280 285 292 319 331 334 342 333 326 341 341 343 348 342 343 344 338 330 314 297 283 274 265 256 247 240
211 215 216 217 222 226 234 221 205 204 200 197 208 215 225 228 235 234 234 227 223 231 221 230 239 245 241 244 248 255 261 262 265 262 266 276 282 292 293 284 280 286 272 258 247 283 303 282 275 300 322 335 331 328 319 309 341 351 339 338 342 332 332 333 333 324 314 305 299 293 278 260 250 242
206 209 213 215 220 223 222 222 214 208 203 209 209 210 217 227 230 232 229 226 222 224 222 226 230 232 231 231 233 234 244 256 254 254 285 314 317 308 298 292 290 276 317 350 308 287 299 319 330 321 332 330 317 312 301 334 345 334 332 338 334 329 331 332 325 320 316 312 306 302 299 272 252 243
211 210 210 211 216 219 224 220 209 213 204 213 218 222 227 230 236 235 229 218 221 219 222 224 224 226 227 224 226 227 241 251 349 19 315 270 271 275 279 282 290 298 327 315 355 322 311 342 344 325 339 335 302 308 333 342 328 326 345 339 336 341 337 328 322 317 314 309 303 303 321 282 250 234
251 232 220 218 220 221 222 216 206 206 200 216 221 224 231 237 243 247 255 268 227 224 224 225 230 241 243 244 251 250 251 225 181 196 240 253 251 260 267 276 290 307 294 53 328 346 318 346 350 332 322 291 218 320 333 330 329 349 343 343 349 338 328 327 328 323 314 306 298 308 345 266 202 189
239 244 238 229 225 225 226 218 204 201 196 216 219 225 233 242 248 251 262 252 260 198 212 244 243 244 240 238 233 241 240 237 210 213 231 237 233 250 253 269 284 284 266 60 348 21 326 360 351 348 334 331 311 122 341 333 352 341 342 347 338 327 325 329 326 320 312 304 301 315 312 183 164 176
221 227 233 229 224 226 225 221 206 202 201 210 220 219 228 236 242 247 241 245 258 274 208 229 218 227 225 219 227 233 236 237 218 211 216 223 227 234 247 253 253 261 291 65 8 48 313 26 320 359 336 323 322 332 343 349 342 335 340 334 328 326 326 326 324 324 327 318 326 348 179 170 180 177
220 218 220 228 213 213 220 220 206 199 205 213 218 217 224 231 190 50 297 298 305 282 266 238 211 208 209 215 220 220 218 221 221 215 217 221 207 211 225 253 281 282 322 33 34 53 328 340 315 332 308 298 298 320 331 331 333 334 333 328 325 330 335 342 345 335 335 336 350 27 182 185 195 203
224 225 216 218 211 204 212 216 209 203 200 210 216 225 227 214 116 267 7 308 299 300 293 272 252 232 218 215 223 235 242 265 279 294 284 190 188 161 235 338 321 296 291 12 40 10 345 319 316 311 318 337 325 334 324 327 329 330 328 328 338 341 350 345 335 342 341 341 343 11 348 280 217 228
222 222 226 223 204 197 205 210 211 208 209 201 214 223 233 238 229 214 246 251 274 274 277 279 277 270 261 254 246 234 226 246 291 63 74 59 115 134 180 197 224 250 277 303 15 14 304 269 275 326 345 353 328 326 319 326 327 333 329 336 340 342 352 337 338 335 337 338 336 346 47 53 308 274
215 222 225 223 210 194 200 205 209 211 206 209 216 222 229 235 241 258 252 250 250 251 255 256 254 252 250 253 251 247 246 264 102 5 67 202 197 191 196 195 292 249 264 281 294 274 241 248 346 42 26 354 334 327 322 311 313 327 328 331 332 343 338 336 332 332 335 335 330 330 323 301 134 125
220 91 97 95 155 191 201 208 212 213 212 216 219 219 225 228 226 222 228 238 240 240 240 241 244 243 236 237 246 251 249 131 161 174 235 21 287 346 346 253 242 247 252 252 234 227 170 81 49 32 10 3 331 307 302 313 326 327 339 335 331 338 332 336 331 336 334 332 331 322 323 302 159 86
124 130 97 99 99 111 132 143 174 195 208 214 222 229 224 203 212 212 213 220 227 235 234 231 230 232 229 229 233 227 153 172 177 182 191 240 18 5 274 281 322 311 289 268 232 137 94 80 72 29 346 312 277 280 315 337 323 327 337 338 324 305 331 338 342 340 343 341 334 326 324 1 61 62
156 145 185 151 178 155 170 177 173 194 171 158 182 204 205 213 213 211 212 215 217 223 229 230 226 221 221 218 146 158 167 174 187 170 173 160 216 217 198 172 279 288 264 242 162 110 105 97 95 53 319 305 301 11 359 324 310 328 330 334 335 332 330 336 344 347 350 341 334 355 17 25 31 20
225 199 132 150 142 128 143 197 172 180 174 191 178 189 194 208 218 219 219 220 225 221 220 233 228 215 210 210 184 191 168 182 181 180 176 170 196 26 8 316 266 257 267 10 29 115 107 114 120 170 248 336 34 10 332 309 312 328 322 329 325 311 335 352 349 354 351 340 343 4 18 14 1 352
222 229 195 185 188 191 190 204 209 202 190 195 195 190 192 204 211 219 219 220 218 221 218 218 220 229 181 217 197 194 193 187 180 159 125 93 89 342 323 292 293 272 258 298 289 108 109 122 141 65 61 77 59 61 330 309 301 331 332 325 328 328 353 359 1 359 349 350 352 342 15 20 11 357
202 204 220 218 216 217 217 215 216 213 209 199 197 203 191 196 211 214 214 215 216 198 200 205 213 217 205 228 209 211 208 222 101 96 115 115 108 221 246 255 248 243 194 201 266 166 146 120 107 90 86 75 63 30 7 279 283 327 320 325 331 329 346 356 1 14 4 358 345 343 357 9 4 355
202 204 212 216 219 220 222 223 221 221 222 225 222 203 185 193 207 207 194 204 201 182 196 202 208 213 213 246 246 228 123 40 58 114 134 149 179 212 226 237 245 238 323 273 247 181 136 138 102 89 135 120 158 180 350 271 265 323 332 342 347 336 347 355 3 15 14 4 360 355 354 358 359 358
202 211 211 214 215 215 219 222 220 219 223 221 224 202 180 189 194 180 180 163 185 186 165 149 143 95 3 45 4 28 58 95 46 331 207 208 203 215 222 229 276 267 213 240 237 191 144 118 103 82 23 299 281 259 199 295 318 308 357 338 348 349 338 346 2 32 25 20 12 3 8 1 358 356
198 211 215 221 218 215 219 217 218 219 224 226 190 170 172 174 172 134 94 83 79 69 66 125 133 151 214 76 50 47 34 40 12 304 283 265 242 218 184 229 239 229 231 225 197 231 148 145 128 106 74 334 320 309 299 169 324 336 37 345 339 357 342 343 1 14 42 20 30 27 17 9 1 2
203 205 220 229 234 225 217 217 217 216 208 173 152 143 132 138 118 116 120 105 103 88 75 52 57 54 74 73 81 114 160 173 228 242 240 245 250 219 225 229 214 206 310 310 291 259 160 139 137 142 143 125 296 303 312 158 170 28 6 52 320 7 13 351 354 355 359 40 47 32 41 31 21 8
203 207 211 228 235 257 220 182 155 125 107 122 138 139 132 122 124 120 110 110 113 114 117 85 61 58 91 99 46 35 359 312 267 276 283 257 237 228 231 216 194 158 19 293 290 281 168 146 153 152 160 168 215 252 271 288 319 145 327 329 303 27 44 1 334 335 338 338 141 169 127 185 200 177
136 53 50 63 63 54 54 72 90 100 96 83 80 73 86 95 102 101 87 85 80 60 57 65 73 74 69 80 109 212 236 240 248 248 253 270 281 274 257 171 167 167 224 278 293 290 130 143 163 182 184 201 214 213 237 306 92 124 198 315 305 276 118 5 345 321 326 328 305 15 28 171 42 26
99 89 57 46 71 69 89 87 90 91 93 90 89 87 83 84 80 80 96 95 99 88 90 99 105 114 111 103 211 226 243 254 263 254 237 232 245 258 268 244 230 234 249 261 264 281 154 180 188 186 188 215 214 360 324 283 258 188 173 210 272 246 145 158 163 156 263 324 328 360 330 328 355 93
96 90 64 46 46 25 28 90 99 100 97 98 96 96 92 82 80 83 79 87 101 121 141 124 137 136 163 212 212 185 241 270 288 288 288 269 251 246 239 223 235 233 237 251 247 273 167 191 174 186 210 195 152 154 237 239 285 120 163 182 214 242 178 145 133 133 172 182 81 352 342 291 243 157
73 73 69 60 54 54 44 44 65 85 98 97 91 90 96 97 102 111 139 120 94 82 35 28 102 145 197 265 248 236 234 232 238 254 272 281 289 282 281 269 252 271 287 279 291 306 296 175 188 206 202 211 203 190 235 185 358 276 156 177 212 189 188 179 146 129 122 198 209 161 171 164 303 330
75 81 77 71 66 60 55 43 40 36 51 68 94 95 94 106 122 131 116 122 147 149 76 113 85 218 195 212 219 236 247 259 283 305 314 306 306 308 310 318 328 331 307 314 314 305 296 286 241 205 211 217 215 238 248 215 200 221 241 189 165 159 183 185 181 181 210 183 246 210 178 202 201 208
79 73 83 80 78 73 73 70 72 73 73 70 68 91 113 124 140 143 128 134 135 152 155 201 194 209 227 219 205 228 246 168 309 281 274 272 285 303 325 335 331 320 312 306 309 293 284 272 273 256 242 239 228 221 239 212 224 224 234 222 207 194 175 169 182 201 206 216 255 288 252 127 150 151